When you browse on this site, cookies collect data to enhance your experience and personalize the content and advertising you see.
Visit our Privacy Policy to learn more. By continuing to use the site, you agree to this use of cookies and data.
  • In Hungary
  • List of Countries
  • For 7 days
  • Water Temperature
  • Satellite Maps
  • Weather Map
  • News
  • Weather Widgets
  • user-avatar
    Login

    Hourly Weather Martorell

    Today, 19 November, Monday

    Time Temperature Precipitation Wind Pressure Humidity
    00:00 +12°C° 0 mm 5 mps 745 mmHg 86%
    01:00 +10°C° 0.1 mm 5 mps 745 mmHg 86%
    02:00 +10°C° 0.1 mm 5 mps 744 mmHg 86%
    03:00 +10°C° 0.1 mm 5 mps 744 mmHg 86%
    04:00 +10°C° 0 mm 5 mps 743 mmHg 86%
    05:00 +9°C° 0 mm 5 mps 743 mmHg 86%
    06:00 +9°C° 0 mm 5 mps 742 mmHg 85%
    07:00 +10°C° 0 mm 5 mps 742 mmHg 82%
    08:00 +10°C° 0 mm 5 mps 742 mmHg 78%
    09:00 +12°C° 0 mm 5 mps 742 mmHg 75%
    10:00 +13°C° 0 mm 5 mps 742 mmHg 71%
    11:00 +14°C° 0 mm 5 mps 741 mmHg 67%
    12:00 +14°C° 0 mm 4 mps 741 mmHg 63%
    13:00 +14°C° 0 mm 4 mps 741 mmHg 65%
    14:00 +14°C° 0 mm 4 mps 740 mmHg 66%
    15:00 +14°C° 0 mm 4 mps 740 mmHg 67%
    16:00 +13°C° 0.1 mm 4 mps 740 mmHg 72%
    17:00 +12°C° 0.1 mm 4 mps 740 mmHg 76%
    18:00 +12°C° 0.1 mm 3 mps 740 mmHg 80%
    19:00 +11°C° 0.2 mm 3 mps 740 mmHg 82%
    20:00 +11°C° 0.2 mm 3 mps 740 mmHg 83%
    21:00 +11°C° 0.2 mm 3 mps 740 mmHg 84%
    22:00 +11°C° 0.1 mm 3 mps 740 mmHg 85%
    23:00 +12°C° 0.1 mm 2 mps 740 mmHg 86%

    Tomorrow, 20 November, Tuesday

    Time Temperature Precipitation Wind Pressure Humidity
    00:00 +12°C° 0.1 mm 2 mps 740 mmHg 87%
    01:00 +12°C° 0.1 mm 2 mps 740 mmHg 88%
    02:00 +12°C° 0.1 mm 2 mps 740 mmHg 89%
    03:00 +12°C° 0.1 mm 1 mps 740 mmHg 91%
    04:00 +12°C° 0.1 mm 2 mps 740 mmHg 91%
    05:00 +10°C° 0.1 mm 2 mps 740 mmHg 91%
    06:00 +10°C° 0.1 mm 2 mps 740 mmHg 92%
    07:00 +12°C° 0 mm 2 mps 740 mmHg 88%
    08:00 +13°C° 0 mm 2 mps 740 mmHg 84%
    09:00 +13°C° 0 mm 2 mps 741 mmHg 81%
    10:00 +14°C° 0.1 mm 2 mps 741 mmHg 78%
    11:00 +14°C° 0.1 mm 2 mps 741 mmHg 76%
    12:00 +15°C° 0.1 mm 2 mps 741 mmHg 74%
    13:00 +15°C° 0.3 mm 2 mps 740 mmHg 75%
    14:00 +15°C° 0.3 mm 2 mps 740 mmHg 76%
    15:00 +15°C° 0.3 mm 2 mps 740 mmHg 76%
    16:00 +14°C° 0.3 mm 2 mps 740 mmHg 79%
    17:00 +14°C° 0.3 mm 2 mps 741 mmHg 82%
    18:00 +12°C° 0.3 mm 3 mps 741 mmHg 84%
    19:00 +12°C° 0.5 mm 3 mps 741 mmHg 85%
    20:00 +12°C° 0.5 mm 3 mps 742 mmHg 85%
    21:00 +12°C° 0.5 mm 3 mps 742 mmHg 86%
    22:00 +11°C° 0.1 mm 3 mps 742 mmHg 86%
    23:00 +11°C° 0.1 mm 3 mps 742 mmHg 86%

    Day after tomorrow, 21 November, Wednesday

    Time Temperature Precipitation Wind Pressure Humidity
    00:00 +10°C° 0.1 mm 3 mps 743 mmHg 87%
    01:00 +10°C° 0 mm 3 mps 743 mmHg 87%
    02:00 +10°C° 0 mm 3 mps 743 mmHg 87%
    03:00 +9°C° 0 mm 3 mps 744 mmHg 87%
    04:00 +9°C° 0 mm 3 mps 744 mmHg 86%
    05:00 +9°C° 0 mm 3 mps 745 mmHg 86%
    06:00 +8°C° 0 mm 3 mps 745 mmHg 86%
    07:00 +9°C° 0 mm 3 mps 745 mmHg 81%
    08:00 +10°C° 0 mm 3 mps 746 mmHg 77%
    09:00 +11°C° 0 mm 3 mps 747 mmHg 73%
    10:00 +13°C° 0 mm 3 mps 747 mmHg 68%
    11:00 +14°C° 0 mm 4 mps 747 mmHg 63%
    12:00 +15°C° 0 mm 4 mps 747 mmHg 58%
    13:00 +15°C° 0 mm 4 mps 748 mmHg 58%
    14:00 +15°C° 0 mm 4 mps 748 mmHg 58%
    15:00 +15°C° 0 mm 4 mps 748 mmHg 57%
    16:00 +14°C° 0 mm 3 mps 749 mmHg 63%
    17:00 +12°C° 0 mm 3 mps 749 mmHg 68%
    18:00 +12°C° 0 mm 2 mps 750 mmHg 74%
    19:00 +12°C° 0 mm 2 mps 751 mmHg 74%
    20:00 +10°C° 0 mm 2 mps 751 mmHg 74%
    21:00 +11°C° 0 mm 1 mps 752 mmHg 75%
    22:00 +10°C° 0 mm 2 mps 752 mmHg 74%
    23:00 +9°C° 0 mm 2 mps 752 mmHg 73%

    22 November, Thursday

    Time Temperature Precipitation Wind Pressure Humidity
    00:00 +9°C° 0 mm 2 mps 752 mmHg 72%
    01:00 +9°C° 0 mm 2 mps 752 mmHg 71%
    02:00 +9°C° 0 mm 2 mps 752 mmHg 69%
    03:00 +9°C° 0 mm 2 mps 752 mmHg 67%
    04:00 +8°C° 0 mm 2 mps 753 mmHg 65%
    05:00 +8°C° 0 mm 2 mps 753 mmHg 63%
    06:00 +8°C° 0 mm 2 mps 753 mmHg 61%
    07:00 +10°C° 0 mm 2 mps 753 mmHg 58%
    08:00 +12°C° 0 mm 2 mps 753 mmHg 54%
    09:00 +13°C° 0 mm 2 mps 754 mmHg 51%
    10:00 +14°C° 0 mm 2 mps 754 mmHg 48%
    11:00 +16°C° 0 mm 2 mps 753 mmHg 46%
    12:00 +18°C° 0 mm 1 mps 753 mmHg 43%
    13:00 +18°C° 0 mm 1 mps 753 mmHg 45%
    14:00 +18°C° 0 mm 1 mps 753 mmHg 47%
    15:00 +18°C° 0 mm 1 mps 753 mmHg 49%
    16:00 +15°C° 0 mm 1 mps 753 mmHg 54%
    17:00 +14°C° 0 mm 1 mps 753 mmHg 59%
    18:00 +13°C° 0 mm 1 mps 753 mmHg 64%
    19:00 +13°C° 0 mm 1 mps 754 mmHg 65%
    20:00 +13°C° 0 mm 1 mps 754 mmHg 65%
    21:00 +13°C° 0 mm 1 mps 754 mmHg 65%
    22:00 +12°C° 0 mm 1 mps 754 mmHg 64%
    23:00 +12°C° 0 mm 2 mps 754 mmHg 64%

    23 November, Friday

    Time Temperature Precipitation Wind Pressure Humidity
    00:00 +12°C° 0 mm 2 mps 754 mmHg 63%
    01:00 +12°C° 0 mm 2 mps 754 mmHg 63%
    02:00 +12°C° 0 mm 2 mps 754 mmHg 63%
    03:00 +11°C° 0 mm 3 mps 754 mmHg 63%
    04:00 +11°C° 0.1 mm 3 mps 753 mmHg 65%
    05:00 +11°C° 0.1 mm 3 mps 753 mmHg 68%
    06:00 +12°C° 0.1 mm 3 mps 753 mmHg 70%
    07:00 +12°C° 0 mm 4 mps 753 mmHg 71%
    08:00 +13°C° 0 mm 4 mps 753 mmHg 73%
    09:00 +14°C° 0 mm 4 mps 753 mmHg 74%
    10:00 +15°C° 0 mm 4 mps 753 mmHg 73%
    11:00 +16°C° 0 mm 5 mps 752 mmHg 72%
    12:00 +19°C° 0 mm 5 mps 752 mmHg 70%
    13:00 +19°C° 0 mm 5 mps 751 mmHg 72%
    14:00 +18°C° 0 mm 4 mps 751 mmHg 73%
    15:00 +18°C° 0 mm 4 mps 751 mmHg 74%
    16:00 +18°C° 0 mm 4 mps 751 mmHg 80%
    17:00 +17°C° 0 mm 4 mps 751 mmHg 85%
    18:00 +16°C° 0 mm 3 mps 751 mmHg 90%
    19:00 +16°C° 0.1 mm 3 mps 751 mmHg 91%
    20:00 +16°C° 0.1 mm 3 mps 751 mmHg 91%
    21:00 +16°C° 0.1 mm 3 mps 751 mmHg 91%
    22:00 +15°C° 0.1 mm 2 mps 751 mmHg 91%
    23:00 +15°C° 0.1 mm 2 mps 751 mmHg 91%

    24 November, Saturday

    Time Temperature Precipitation Wind Pressure Humidity
    00:00 +15°C° 0.1 mm 2 mps 750 mmHg 91%
    01:00 +15°C° 0.6 mm 2 mps 750 mmHg 91%
    02:00 +15°C° 0.6 mm 2 mps 750 mmHg 91%
    03:00 +15°C° 0.6 mm 2 mps 750 mmHg 91%
    04:00 +13°C° 0.7 mm 3 mps 750 mmHg 90%
    05:00 +13°C° 0.7 mm 3 mps 750 mmHg 89%
    06:00 +13°C° 0.7 mm 3 mps 750 mmHg 89%
    07:00 +15°C° 0 mm 2 mps 750 mmHg 85%
    08:00 +15°C° 0 mm 2 mps 751 mmHg 81%
    09:00 +16°C° 0 mm 2 mps 751 mmHg 77%
    10:00 +17°C° 0 mm 2 mps 751 mmHg 72%
    11:00 +18°C° 0 mm 3 mps 751 mmHg 68%
    12:00 +19°C° 0 mm 3 mps 751 mmHg 63%
    13:00 +19°C° 0 mm 3 mps 751 mmHg 65%
    14:00 +19°C° 0 mm 2 mps 751 mmHg 66%
    15:00 +18°C° 0 mm 2 mps 751 mmHg 67%
    16:00 +17°C° 0 mm 2 mps 751 mmHg 72%
    17:00 +16°C° 0 mm 2 mps 752 mmHg 78%
    18:00 +15°C° 0 mm 2 mps 752 mmHg 83%
    19:00 +15°C° 0 mm 2 mps 752 mmHg 84%
    20:00 +15°C° 0 mm 2 mps 753 mmHg 85%
    21:00 +14°C° 0 mm 2 mps 753 mmHg 85%
    22:00 +14°C° 0.1 mm 2 mps 753 mmHg 85%
    23:00 +14°C° 0.1 mm 2 mps 753 mmHg 84%
    Show more